This demonstration page uses our WeatherBlox Daily Observations layout. Learn more.

Left ArrowRight Arrow

39.51506, -84.39828

Hourly Observations for September 30, 2015

Temp ( °F °C ) Dew Point ( °F °C ) Humidity (%) Winds ( mph kmh ) Pressure ( in mb ) Visibility ( mi km ) Precip ( " mm )
12:15 am 00:15 Cloudy 64 18 60 15.4 85 85 NNE 14 22 29.91 1013 7 11.26538 0 0
12:35 am 00:35 Cloudy 63 17.1 58 14.5 85 85 NNE 9 15 29.94 1014 10 16.0934 0 0
12:55 am 00:55 Cloudy 63 17 58 14.2 84 84 NNE 10 17 29.94 1014 7 11.26538 0 0
1:15 am 01:15 Cloudy 62 16.8 57 14 84 84 N 12 19 29.94 1014 10 16.0934 0 0
1:35 am 01:35 Cloudy with Drizzle 62 16.6 57 13.8 84 84 NNE 9 15 29.94 1014 10 16.0934 0 0
1:55 am 01:55 Cloudy 62 16.6 57 14 85 85 NNE 8 13 29.94 1014 10 16.0934 0 0
2:15 am 02:15 Cloudy 62 16.6 57 13.8 84 84 NNE 9 15 29.94 1014 10 16.0934 0 0
2:35 am 02:35 Cloudy 62 16.6 57 13.8 84 84 N 9 15 29.94 1014 10 16.0934 0 0
2:55 am 02:55 Cloudy with Light Rain 61 16.2 57 13.7 85 85 N 7 11 29.94 1014 10 16.0934 0 0
3:15 am 03:15 Cloudy with Light Rain 61 16 56 13.4 85 85 NNE 10 17 29.91 1013 10 16.0934 0 0
3:35 am 03:35 Partly Cloudy 61 16 56 13.3 84 84 N 7 11 29.94 1014 10 16.0934 0 0
3:55 am 03:55 Mostly Cloudy 61 16 56 13.2 84 84 N 9 15 29.94 1014 10 16.0934 0 0
4:15 am 04:15 Cloudy 61 16 55 13 83 83 NNE 10 17 29.91 1013 10 16.0934 0 0
4:35 am 04:35 Cloudy with Drizzle 61 16 56 13.2 84 84 N 7 11 29.94 1014 10 16.0934 0 0
4:55 am 04:55 Cloudy 61 16 55 13 83 83 N 9 15 29.94 1014 10 16.0934 0 0
5:15 am 05:15 Cloudy 61 16 55 13 83 83 NNE 13 20 29.94 1014 10 16.0934 0 0
5:35 am 05:35 Cloudy 60 15.3 54 12.1 81 81 NNE 9 15 29.94 1014 10 16.0934 0 0
5:55 am 05:55 Cloudy 60 15.3 54 12 81 81 NNE 8 13 29.94 1014 10 16.0934 0 0
6:15 am 06:15 Cloudy 60 15.3 54 12 81 81 NNE 9 15 29.94 1014 10 16.0934 0 0
6:35 am 06:35 Cloudy 60 15.3 54 12.1 81 81 NNE 7 11 29.94 1014 10 16.0934 0 0
6:55 am 06:55 Cloudy 60 15.3 54 12.1 81 81 NNE 7 11 29.94 1014 10 16.0934 0 0
7:15 am 07:15 Cloudy 60 15.3 54 12.2 82 82 NNE 7 11 30 1016 10 16.0934 0 0
7:35 am 07:35 Cloudy 60 15.3 54 12.3 82 82 N 6 9 30 1016 10 16.0934 0 0
7:55 am 07:55 Cloudy 60 15.3 54 12.3 82 82 NNE 8 13 30 1016 10 16.0934 0 0
8:15 am 08:15 Cloudy 60 15.3 55 12.5 84 84 N 8 13 30 1016 10 16.0934 0 0
8:35 am 08:35 Cloudy 60 15.3 54 12.2 82 82 NNE 10 17 30 1016 10 16.0934 0 0
8:55 am 08:55 Mostly Cloudy 60 15.3 54 12.2 82 82 NNE 10 17 30.03 1017 10 16.0934 0 0
9:15 am 09:15 Partly Cloudy 60 15.3 54 12 81 81 NNE 7 11 30.03 1017 10 16.0934 0 0
9:35 am 09:35 Partly Cloudy 60 15.3 53 11.9 80 80 NNE 12 19 30.03 1017 10 16.0934 0 0
9:55 am 09:55 Cloudy with Light Rain 60 15.4 54 12.1 81 81 NNE 13 20 30.03 1017 10 16.0934 0 0
10:15 am 10:15 Cloudy with Drizzle 61 15.9 54 12.4 80 80 N 13 20 30 1016 10 16.0934 0 0
10:35 am 10:35 Cloudy 61 16 54 12.2 78 78 NNE 13 20 30 1016 10 16.0934 0 0
10:55 am 10:55 Cloudy 62 16.6 55 12.6 77 77 NNE 10 17 30 1016 10 16.0934 0 0
11:15 am 11:15 Cloudy 62 16.6 54 12.1 75 75 NNE 12 19 30.03 1017 10 16.0934 0 0
11:35 am 11:35 Cloudy 62 16.6 54 12.1 75 75 NE 8 13 30.03 1017 10 16.0934 0 0
11:55 am 11:55 Cloudy 63 17.3 55 12.5 74 74 N 12 19 30.03 1017 10 16.0934 0 0
12:15 pm 12:15 Cloudy 63 17 54 12.2 74 74 NNE 16 26 30.03 1017 10 16.0934 0 0
12:35 pm 12:35 Cloudy 64 18 55 12.7 71 71 NE 9 15 30.03 1017 10 16.0934 0 0
12:55 pm 12:55 Cloudy 65 18.3 54 12.2 68 68 NE 9 15 30.03 1017 10 16.0934 0 0
1:15 pm 13:15 Cloudy 65 18.6 55 12.5 68 68 NNE 9 15 30.03 1017 10 16.0934 0 0
1:35 pm 13:35 Mostly Cloudy 67 19.5 55 12.5 64 64 NNE 10 17 30.03 1017 10 16.0934 0 0
1:55 pm 13:55 Mostly Cloudy 69 20.8 56 13.4 63 63 NE 15 24 30.03 1017 10 16.0934 0 0
2:15 pm 14:15 Mostly Cloudy 69 20.8 56 13.1 62 62 NNE 9 15 30.03 1017 10 16.0934 0 0
2:35 pm 14:35 Cloudy 69 20.8 56 13.1 62 62 NNE 9 15 30.03 1017 10 16.0934 0 0
2:55 pm 14:55 Mostly Cloudy 69 20.8 55 13 61 61 NNE 8 13 30 1016 10 16.0934 0 0
3:15 pm 15:15 Partly Cloudy 69 20.8 54 12.2 58 58 NNE 6 9 30 1016 10 16.0934 0 0
3:35 pm 15:35 Sunny 69 20.8 53 11.9 57 57 ENE 8 13 30 1016 10 16.0934 0 0
3:55 pm 15:55 Partly Cloudy 69 20.8 52 11.2 54 54 NE 9 15 30 1016 10 16.0934 0 0
4:15 pm 16:15 Partly Cloudy 69 20.8 52 11.2 54 54 ENE 7 11 30 1016 10 16.0934 0 0
4:35 pm 16:35 Partly Cloudy 69 20.8 53 11.7 56 56 E 5 7 30 1016 10 16.0934 0 0
4:55 pm 16:55 Mostly Cloudy 69 20.8 53 11.8 57 57 E 3 6 30 1016 10 16.0934 0 0
5:15 pm 17:15 Partly Cloudy 69 20.8 53 11.9 57 57 ENE 6 9 30 1016 10 16.0934 0 0
5:35 pm 17:35 Sunny 69 20.8 53 11.5 55 55 NE 7 11 30 1016 10 16.0934 0 0
5:55 pm 17:55 Partly Cloudy 69 20.8 49 9.7 49 49 NNE 6 9 30 1016 10 16.0934 0 0
6:15 pm 18:15 Mostly Cloudy 69 20.8 50 9.9 50 50 NNE 6 9 30 1016 10 16.0934 0 0
6:35 pm 18:35 Mostly Cloudy 69 20.8 51 10.5 52 52 NNE 7 11 30 1016 10 16.0934 0 0
6:55 pm 18:55 Partly Cloudy 69 20.8 50 10.1 51 51 NNE 8 13 30.03 1017 10 16.0934 0 0
7:15 pm 19:15 Partly Cloudy 69 20.8 50 10.1 51 51 NNE 13 20 30.03 1017 10 16.0934 0 0
7:35 pm 19:35 Partly Cloudy 69 20.5 50 9.8 50 50 NE 10 17 30.03 1017 10 16.0934 0 0
8:15 pm 20:15 Mostly Cloudy 65 18.5 47 8.5 52 52 NE 9 15 30.03 1017 10 16.0934 0 0
8:35 pm 20:35 Mostly Cloudy 64 18 47 8.3 53 53 NE 12 19 30.03 1017 10 16.0934 0 0
8:55 pm 20:55 Cloudy 63 17 48 9 59 59 NNE 7 11 30.06 1018 10 16.0934 0 0
9:15 pm 21:15 Mostly Cloudy 62 16.6 48 9 61 61 NE 8 13 30.06 1018 10 16.0934 0 0
9:35 pm 21:35 Cloudy 63 17 47 8.3 57 57 NE 15 24 30.06 1018 10 16.0934 0 0
9:55 pm 21:55 Mostly Cloudy 62 16.6 46 8 57 57 NE 15 24 30.06 1018 10 16.0934 0 0
10:15 pm 22:15 Partly Cloudy 62 16.6 47 8.4 59 59 NE 10 17 30.06 1018 10 16.0934 0 0
10:35 pm 22:35 Clear 61 16 47 8.2 60 60 NE 9 15 30.09 1019 10 16.0934 0 0
10:55 pm 22:55 Clear 60 15.8 47 8.3 61 61 NE 10 17 30.12 1020 10 16.0934 0 0
11:15 pm 23:15 Clear 60 15.3 47 8.5 64 64 NNE 9 15 30.09 1019 10 16.0934 0 0
11:35 pm 23:35 Clear 60 15.3 48 9 66 66 NE 9 15 30.09 1019 10 16.0934 0 0
11:55 pm 23:55 Clear 60 15.3 49 9.4 68 68 NE 7 11 30.09 1019 10 16.0934 0 0

Powered by AerisWeather